Location: Carri�res
(48.9069°N, 2.1792°E)
Time: 13:40:54
(UTC+00:00)

ERS-2 - Pass Details

Date: 17 January 2021
Orbit: 492 x 497 km, 98.6° (Epoch: 26 February)

Event Time Altitude Azimuth Distance (km) Brightness Sun altitude
Exits shadow 18:46:15 35° 346° (NNW) 814 3.2 -22.6°
Maximum altitude 18:47:28 54° 289° (WNW) 607 2.7 -22.8°
Drops below altitude 10° 18:51:00 10° 212° (SSW) 1,685 5.2 -23.4°
Sets 18:53:05 0° 207° (SSW) 2,562 6.2 -23.7°
